Nome, AK

1:31 AM AKDT on September 25, 2016 (GMT -0800)
Nome

Weather History for PAOM - May, 2013

Change the Weather History Date:

Thursday, May 2, 2013

  Actual Average Record
Temperature  
Mean Temperature 17 °F 30 °F  
Max Temperature 25 °F 36 °F 56 °F (2004)
Min Temperature 9 °F 24 °F -11 °F (1949)
Degree Days  
Heating Degree Days 48 35  
Month to date heating degree days 93 70  
Since 1 July heating degree days 12834 12383  
Cooling Degree Days 0    
Month to date cooling degree days 0  
Year to date cooling degree days 0  
Moisture  
Dew Point 6 °F    
Average Humidity 0    
Maximum Humidity 0    
Minimum Humidity 0    
Precipitation  
Precipitation 0.00 in 0.02 in 0.46 in (1981)
Month to date precipitation T 0.05  
Year to date precipitation 2.46 3.33  
Snow  
Snow 0.00 in 0.20 in 4.60 in (1981)
Month to date snowfall 0.0 0.3  
Since 1 July snowfall 54.9 73.4  
Snow Depth 7.00 in    
Sea Level Pressure  
Sea Level Pressure 30.07 in    
Wind  
Wind Speed 6 mph (NW)    
Max Wind Speed 13 mph    
Max Gust Speed 20 mph    
Visibility 10 miles    
Events      
T = Trace of Precipitation, MM = Missing Value Source: NWS Daily Summary

Daily Weather History Graph

Daily Weather History Graph

Search for Another Location

Airport or City:

Trip Planner

Search our weather history database for the weather conditions in past years. The results will help you decide how hot, cold, wet, or windy it might be!

Date:

Astronomy

May. 02, 2013 Rise Set
Actual Time 6:25 AM AKDT 11:33 PM AKDT
Civil Twilight 5:12 AM AKDT 12:49 AM AKDT
Nautical Twilight 3:31 AM AKDT 2:26 AM AKDT
Astronomical Twilight Sun does not set Sun does not set
Moon 5:01 AM AKDT (5/2) 2:04 PM AKDT (5/2)
Length of Visible Light 19h 36m
Length of Day
17h 07m
Last Quarter, 46% of the Moon is Illuminated
May 2
Last Quarter
May 9
New
May 17
First Quarter
May 24
Full
May 31
Last Quarter

Hourly Weather History & Observations

Time (AKDT) Temp. Windchill Dew Point Humidity Pressure Visibility Wind Dir Wind Speed Gust Speed Precip Events Conditions
12:53 AM 15.1 °F 5.2 °F 3.9 °F 61% 30.03 in 10.0 mi North 6.9 mph - N/A   Scattered Clouds
1:53 AM 14.0 °F 2.0 °F 3.9 °F 64% 30.02 in 10.0 mi North 9.2 mph - N/A   Clear
2:53 AM 12.0 °F 1.5 °F 3.0 °F 67% 30.04 in 10.0 mi NNW 6.9 mph - N/A   Clear
3:53 AM 10.9 °F 0.2 °F 3.0 °F 70% 30.02 in 10.0 mi NNW 6.9 mph - N/A   Clear
4:53 AM 10.9 °F 2.9 °F 1.9 °F 67% 30.04 in 10.0 mi NNW 4.6 mph - N/A   Clear
5:53 AM 10.9 °F 4.7 °F 1.9 °F 67% 30.04 in 10.0 mi NNE 3.5 mph - N/A   Clear
6:53 AM 10.0 °F 0.4 °F 1.0 °F 67% 30.04 in 10.0 mi West 5.8 mph - N/A   Clear
7:53 AM 12.0 °F 5.9 °F 3.0 °F 67% 30.04 in 10.0 mi West 3.5 mph - N/A   Clear
8:53 AM 14.0 °F 6.5 °F 3.0 °F 62% 30.04 in 10.0 mi NW 4.6 mph - N/A   Clear
9:53 AM 17.1 °F 8.7 °F 3.9 °F 56% 30.06 in 10.0 mi West 5.8 mph - N/A   Clear
10:53 AM 21.0 °F 12.4 °F 6.1 °F 53% 30.06 in 10.0 mi North 6.9 mph - N/A   Clear
11:53 AM 21.0 °F - 8.1 °F 57% 30.08 in 10.0 mi Calm Calm - N/A   Clear
12:53 PM 21.0 °F 14.6 °F 8.1 °F 57% 30.08 in 10.0 mi SSW 4.6 mph - N/A   Clear
1:53 PM 21.9 °F 13.4 °F 9.0 °F 58% 30.08 in 10.0 mi West 6.9 mph - N/A   Clear
2:53 PM 23.0 °F 17.0 °F 10.0 °F 58% 30.10 in 10.0 mi WSW 4.6 mph - N/A   Clear
3:53 PM 25.0 °F 15.5 °F 8.1 °F 49% 30.10 in 10.0 mi ENE 9.2 mph - N/A   Clear
4:53 PM 24.1 °F 19.7 °F 10.0 °F 55% 30.09 in 10.0 mi SSW 3.5 mph - N/A   Partly Cloudy
5:53 PM 24.1 °F 16.0 °F 10.0 °F 55% 30.09 in 10.0 mi WSW 6.9 mph - N/A   Scattered Clouds
6:53 PM 25.0 °F 14.8 °F 12.0 °F 58% 30.10 in 10.0 mi West 10.4 mph - N/A   Scattered Clouds
7:53 PM 25.0 °F 17.1 °F 8.1 °F 49% 30.10 in 10.0 mi NE 6.9 mph - N/A   Scattered Clouds
8:53 PM 23.0 °F 18.4 °F 7.0 °F 50% 30.11 in 10.0 mi Variable 3.5 mph - N/A   Scattered Clouds
9:53 PM 19.9 °F 11.1 °F 8.1 °F 60% 30.12 in 10.0 mi East 6.9 mph - N/A   Scattered Clouds
10:53 PM 19.0 °F 10.0 °F 3.9 °F 52% 30.12 in 10.0 mi ENE 6.9 mph - N/A   Scattered Clouds
11:53 PM 17.1 °F - 7.0 °F 65% 30.14 in 10.0 mi Calm Calm - N/A   Scattered Clouds